CST,Max TemperatureF,Mean TemperatureF,Min TemperatureF,Max Dew PointF,MeanDew PointF,Min DewpointF,Max Humidity, Mean Humidity, Min Humidity, Max Sea Level PressureIn, Mean Sea Level PressureIn, Min Sea Level PressureIn, Max VisibilityMiles, Mean VisibilityMiles, Min VisibilityMiles, Max Wind SpeedMPH, Mean Wind SpeedMPH, Max Gust SpeedMPH,PrecipitationIn, CloudCover, Events, WindDirDegrees
2012-12-1,47,42,37,46,40,33,100,85,70,30.14,29.89,29.79,5,3,0,13,7,16,0.01,8,Fog,158
2012-12-2,47,41,34,45,38,34,100,92,83,30.03,29.95,29.83,3,1,0,12,3,13,0.00,5,Fog,182
2012-12-3,64,50,36,56,46,34,100,82,63,29.94,29.76,29.59,10,4,0,22,9,29,0.11,7,Fog-Rain,174
2012-12-4,46,34,22,30,24,12,70,58,45,30.43,30.17,29.94,10,10,10,20,10,23,0.00,0,,293
2012-12-5,38,28,18,22,14,10,73,54,35,30.48,30.33,30.08,10,10,10,20,9,25,0.00,1,,131
2012-12-6,48,42,36,38,32,24,76,64,52,30.05,29.93,29.84,10,10,10,21,10,26,0.03,5,Rain,222
2012-12-7,38,34,29,29,23,20,82,71,59,30.06,30.03,29.98,10,10,10,13,7,15,0.00,5,,345
2012-12-8,37,30,23,25,23,21,88,71,54,30.12,30.08,30.03,10,10,10,10,4,14,0.00,3,,24
2012-12-9,34,32,30,31,29,25,100,85,69,30.08,29.89,29.75,10,3,0,12,4,16,0.47,8,Fog-Snow,47
2012-12-10,30,21,11,28,20,9,92,85,77,29.99,29.88,29.76,10,8,2,20,9,23,0.02,8,Snow,295
2012-12-11,25,18,10,21,16,9,100,84,68,30.10,29.97,29.87,10,6,0,12,5,15,0.01,7,Fog-Snow,194
2012-12-12,41,30,19,25,22,16,96,74,51,30.12,30.08,30.02,10,10,7,22,13,29,0.00,2,,158
2012-12-13,42,32,22,25,22,19,96,72,48,30.17,30.08,30.04,10,10,7,22,7,25,0.00,0,,182
2012-12-14,43,31,18,30,24,18,100,75,49,30.19,30.09,29.89,10,9,5,10,3,14,0.00,1,,116
2012-12-15,42,40,37,40,36,30,100,83,65,29.88,29.62,29.51,10,5,0,15,5,18,0.35,8,Fog-Rain,115
2012-12-16,37,32,26,37,31,22,92,89,85,29.81,29.66,29.51,10,6,1,16,8,18,0.10,8,Rain,307
2012-12-17,26,25,23,22,20,19,88,82,75,29.84,29.79,29.72,10,10,6,14,4,16,0.00,8,,322
2012-12-18,31,28,25,27,25,21,88,83,78,29.90,29.72,29.63,10,6,0,10,5,13,0.07,8,Fog-Snow,70
2012-12-19,35,33,30,29,28,27,92,84,75,30.06,30.00,29.92,10,8,4,10,3,13,0.00,8,,161
2012-12-20,33,27,21,29,25,16,92,84,75,29.90,29.73,29.57,8,2,0,32,21,40,0.61,8,Fog-Snow,348
2012-12-21,22,16,9,13,8,5,92,75,57,30.32,30.18,29.92,10,10,7,30,13,36,0.00,0,,318
2012-12-22,27,17,6,13,9,4,92,71,50,30.29,30.14,30.03,10,10,7,14,5,17,0.00,0,,145
2012-12-23,25,18,11,15,13,7,92,76,60,30.16,30.10,30.04,10,10,8,16,6,18,0.00,3,,352
2012-12-24,23,17,10,14,11,2,80,73,65,30.29,30.08,29.95,10,10,9,17,8,20,T,5,,338
2012-12-25,15,9,2,3,0,-2,83,74,64,30.51,30.45,30.32,10,10,10,16,9,18,0.00,0,,339
2012-12-26,20,12,3,9,4,-1,86,74,62,30.45,30.35,30.30,10,10,10,13,8,14,T,3,,335
2012-12-27,24,14,3,18,12,1,88,78,68,30.34,30.25,30.15,10,8,2,8,3,10,0.02,7,Snow,347
2012-12-28,25,23,20,21,19,18,92,87,81,30.19,30.05,29.96,10,4,1,10,3,13,0.18,8,Snow,332
2012-12-29,22,14,5,19,13,3,91,79,67,30.27,30.10,29.96,10,9,4,14,8,18,T,7,Snow,301
2012-12-30,24,13,1,17,8,0,91,79,67,30.34,30.19,29.99,10,9,7,15,7,21,0.00,1,,178
2012-12-31,24,11,-2,17,7,-6,88,72,56,30.32,30.16,30.00,10,10,6,21,9,24,T,3,,323